EW2279 Weather Reports


Display with metric or nautical units.
time (UTC)temp
F
wind
direction
speed
MPH
gust
MPH
rain 1hr
in
rain 24hr
in
rain mn
in
humidity
%
barometer
mb
20210127030922 44 112 0.0 0.0 0.00 0.96 0.90 58 1012.6
20210127030434 44 112 0.0 2.0 0.00 0.96 0.90 59 1012.6
20210127025919 44 112 0.0 2.0 0.00 0.96 0.90 59 1012.6
20210127025412 45 112 0.0 2.0 0.00 0.96 0.90 60 1012.6
20210127024908 45 112 0.0 2.0 0.00 0.96 0.90 61 1012.6
20210127024356 45 112 0.0 2.0 0.00 0.96 0.90 61 1012.6
20210127023843 45 135 0.0 2.0 0.00 0.96 0.90 59 1012.6
20210127023340 45 112 0.0 0.0 0.00 0.96 0.90 58 1012.6
20210127022840 45 112 0.0 1.0 0.00 0.96 0.90 59 1012.6
20210127022325 45 112 0.0 1.0 0.00 0.96 0.90 59 1012.6
20210127021815 45 112 0.0 1.0 0.00 0.96 0.90 60 1012.6
20210127021254 45 112 0.0 2.0 0.00 0.96 0.90 60 1012.6
20210127020729 45 135 1.0 2.0 0.00 0.96 0.90 61 1012.6
20210127020239 45 112 0.0 2.0 0.00 0.96 0.90 61 1012.6
20210127015724 45 112 0.0 0.0 0.00 0.96 0.90 62 1012.6
20210127015210 45 112 0.0 2.0 0.00 0.96 0.90 64 1012.6
20210127014654 45 112 1.0 2.0 0.00 0.96 0.90 65 1012.6
20210127014126 46 112 0.0 2.0 0.00 0.96 0.90 64 1012.6
20210127013557 46 292 0.0 2.0 0.00 0.96 0.90 63 1012.6
20210127013055 46 135 0.0 2.0 0.00 0.96 0.90 62 1012.3
20210127012557 46 270 0.0 2.0 0.00 0.96 0.90 62 1012.3
20210127012057 46 112 0.0 2.0 0.00 0.96 0.90 61 1012.3
20210127011602 46 112 0.0 2.0 0.00 0.96 0.90 61 1012.6
20210127011059 46 135 0.0 3.0 0.00 0.96 0.90 61 1012.3
20210127010552 46 90 0.0 3.0 0.00 0.96 0.90 61 1012.3
20210127010050 46 90 0.0 2.0 0.00 0.96 0.90 62 1012.3
20210127005552 46 90 0.0 2.0 0.00 0.96 0.90 63 1011.8
20210127005044 47 90 0.0 2.0 0.00 0.96 0.90 62 1011.8
20210127004543 47 135 0.0 1.0 0.00 0.96 0.90 62 1011.8
20210127004036 47 112 0.0 2.0 0.00 0.96 0.90 62 1011.8
20210127003534 47 112 0.0 2.0 0.00 0.96 0.90 62 1011.8
20210127003045 47 90 0.0 2.0 0.00 0.96 0.90 61 1011.8
20210127002521 48 67 0.0 3.0 0.00 0.96 0.90 60 1011.8
20210127002027 48 112 0.0 3.0 0.00 0.96 0.90 59 1011.5
20210127001526 49 135 0.0 3.0 0.00 0.96 0.90 57 1011.8
20210127001021 49 135 0.0 3.0 0.00 0.96 0.90 55 1011.5
20210127000456 49 292 0.0 0.0 0.00 0.96 0.90 54 1011.5
20210126235956 49 292 0.0 0.0 0.00 0.96 0.90 55 1011.5
20210126235441 50 292 0.0 0.0 0.00 0.96 0.90 55 1011.5
20210126234924 50 292 0.0 1.0 0.00 0.96 0.90 54 1011.5
20210126234407 50 135 0.0 1.0 0.00 0.96 0.90 54 1011.5
20210126233905 51 292 0.0 1.0 0.00 0.96 0.90 53 1011.5
20210126233351 51 292 0.0 0.0 0.00 0.96 0.90 54 1011.5
20210126232838 51 292 0.0 1.0 0.00 0.96 0.90 54 1011.5
20210126232337 52 292 0.0 1.0 0.00 0.96 0.90 52 1011.5
20210126231832 52 292 0.0 0.0 0.00 0.96 0.90 51 1011.2
20210126231327 53 292 0.0 0.0 0.00 0.96 0.90 50 1011.2
20210126230825 53 292 0.0 2.0 0.00 0.96 0.90 49 1011.5
20210126230319 53 292 0.0 2.0 0.00 0.96 0.90 48 1011.2
20210126225821 53 135 0.0 0.0 0.00 0.96 0.90 50 1011.2
20210126225322 54 135 0.0 0.0 0.00 0.96 0.90 53 1011.2
20210126224808 55 337 0.0 0.0 0.00 0.96 0.90 53 1011.2
20210126224307 55 337 0.0 0.0 0.00 0.96 0.90 52 1010.7
20210126223812 56 337 0.0 0.0 0.00 0.96 0.90 50 1010.7
20210126223309 57 337 0.0 0.0 0.00 0.96 0.90 47 1010.7
20210126222804 57 337 0.0 0.0 0.00 0.96 0.90 43 1010.7
20210126222253 58 337 0.0 1.0 0.00 0.96 0.90 41 1010.7
20210126221750 58 337 0.0 1.0 0.00 0.96 0.90 39 1010.4
20210126221237 59 315 0.0 2.0 0.00 0.96 0.90 37 1010.4
20210126220718 59 315 1.0 2.0 0.00 0.96 0.90 36 1010.4
20210126220215 60 292 0.0 2.0 0.00 0.96 0.90 39 1010.4
20210126215714 60 135 0.0 1.0 0.00 0.96 0.90 40 1010.4
20210126215212 60 247 0.0 2.0 0.00 0.96 0.90 37 1010.4
20210126214657 61 135 1.0 3.0 0.00 0.96 0.90 37 1010.0
20210126214217 61 270 0.0 3.0 0.00 0.96 0.90 36 1010.4
20210126213648 61 270 0.0 2.0 0.00 0.96 0.90 34 1010.0
20210126213152 61 292 2.0 4.0 0.00 0.96 0.90 33 1010.0
20210126212649 61 292 2.0 4.0 0.00 0.96 0.90 33 1010.0
20210126212149 61 292 2.0 4.0 0.00 0.96 0.90 33 1010.0
20210126211702 62 135 2.0 4.0 0.00 0.96 0.90 31 1010.0
20210126211150 62 247 2.0 4.0 0.00 0.96 0.90 30 1010.0
20210126210643 63 247 2.0 4.0 0.00 0.96 0.90 32 1009.7
20210126210137 63 135 1.0 4.0 0.00 0.96 0.90 33 1009.7
20210126205637 63 270 1.0 2.0 0.00 0.96 0.90 33 1009.7
20210126205133 63 270 2.0 5.0 0.00 0.96 0.90 34 1009.7
20210126204624 63 270 2.0 5.0 0.00 0.96 0.90 39 1009.7
20210126204122 63 292 1.0 5.0 0.00 0.96 0.90 53 1009.7
20210126203617 63 292 1.0 5.0 0.00 0.96 0.90 62 1009.3
20210126203120 63 247 1.0 2.0 0.00 0.96 0.90 65 1009.7
20210126202609 63 247 1.0 3.0 0.00 0.96 0.90 67 1009.7
20210126202108 63 112 1.0 3.0 0.00 0.96 0.90 69 1009.7
20210126201608 64 112 1.0 3.0 0.00 0.96 0.90 69 1009.3
20210126201100 64 292 1.0 3.0 0.00 0.96 0.90 69 1009.3
20210126200551 65 247 0.0 3.0 0.00 0.96 0.90 71 1008.9
20210126200046 65 112 0.0 3.0 0.00 0.96 0.90 71 1008.9
20210126195532 65 135 1.0 4.0 0.00 0.96 0.90 70 1009.3
20210126195032 65 112 2.0 4.0 0.00 0.96 0.90 69 1009.7
20210126194533 65 135 2.0 4.0 0.00 0.96 0.90 70 1009.3
20210126194030 65 67 1.0 4.0 0.00 0.96 0.90 72 1009.3
20210126193525 65 202 1.0 3.0 0.00 0.96 0.90 73 1009.3
20210126193027 64 112 1.0 4.0 0.00 0.96 0.90 74 1008.9
20210126192523 64 315 1.0 5.0 0.00 0.96 0.90 75 1009.3
20210126192021 64 112 1.0 5.0 0.00 0.96 0.90 77 1009.3
20210126191521 64 112 1.0 4.0 0.00 0.96 0.90 78 1009.3
20210126191022 64 157 1.0 6.0 0.00 0.96 0.90 79 1009.3
20210126190457 63 112 1.0 6.0 0.00 0.96 0.90 79 1009.3
20210126185959 63 202 1.0 4.0 0.00 0.96 0.90 80 1009.3
20210126185457 63 157 1.0 4.0 0.00 0.96 0.90 81 1009.3
20210126184941 63 225 1.0 3.0 0.00 0.96 0.90 83 1009.7
20210126184421 64 135 1.0 4.0 0.00 0.96 0.90 85 1009.3
20210126183920 64 112 1.0 4.0 0.00 0.96 0.90 86 1009.3
20210126183419 63 135 1.0 4.0 0.00 0.96 0.90 87 1009.3
20210126182916 63 225 0.0 2.0 0.00 0.96 0.90 89 1009.3
20210126182419 63 202 0.0 2.0 0.00 0.96 0.90 90 1009.7
20210126181918 62 202 1.0 2.0 0.00 0.96 0.90 91 1009.3
20210126181414 62 135 1.0 4.0 0.00 0.96 0.90 92 1009.7
20210126180907 62 247 1.0 4.0 0.00 0.96 0.90 94 1009.7
20210126180403 62 247 0.0 2.0 0.00 0.96 0.90 95 1009.7
20210126175902 61 225 0.0 3.0 0.00 0.96 0.90 95 1009.7
20210126175401 61 225 1.0 3.0 0.00 0.96 0.90 96 1009.7
20210126174843 60 135 0.0 3.0 0.00 0.96 0.90 97 1009.7
20210126174401 59 135 1.0 4.0 0.00 0.96 0.90 98 1009.7
20210126173846 58 135 1.0 4.0 0.00 0.96 0.90 98 1009.7
20210126173347 58 112 1.0 4.0 0.00 0.96 0.90 99 1010.0
20210126172844 58 112 0.0 4.0 0.00 0.96 0.90 99 1009.7
20210126172344 58 202 0.0 2.0 0.00 0.96 0.90 99 1010.0
20210126171839 57 202 0.0 2.0 0.00 0.96 0.90 99 1010.0
20210126171329 57 202 0.0 2.0 0.00 0.96 0.90 100 1010.0
20210126170815 57 202 1.0 3.0 0.00 0.96 0.90 100 1010.0
20210126170316 56 135 0.0 3.0 0.00 0.96 0.90 100 1010.4
20210126165812 56 225 0.0 2.0 0.00 0.96 0.90 100 1010.0
20210126165313 56 112 0.0 2.0 0.00 0.96 0.90 100 1010.4
20210126164817 56 157 0.0 2.0 0.00 0.96 0.90 100 1010.4
20210126164313 56 157 0.0 2.0 0.00 0.96 0.90 100 1010.4
20210126163809 56 202 0.0 2.0 0.00 0.96 0.90 100 1010.4
20210126163313 56 112 0.0 2.0 0.00 0.96 0.90 100 1010.7
20210126162747 56 180 0.0 4.0 0.00 0.96 0.90 100 1010.7
20210126162243 56 135 0.0 4.0 0.00 0.96 0.90 100 1010.7
20210126161746 56 135 1.0 3.0 0.00 0.96 0.90 100 1010.7
20210126161245 56 135 1.0 3.0 0.00 0.96 0.90 100 1010.4
20210126160746 56 135 0.0 2.0 0.00 0.96 0.90 100 1010.7
20210126160242 56 225 0.0 2.0 0.00 0.96 0.90 100 1010.4
20210126155731 56 225 0.0 1.0 0.00 0.96 0.90 100 1010.4
20210126155231 55 225 0.0 2.0 0.00 0.96 0.90 100 1010.4
20210126154731 55 225 0.0 3.0 0.00 0.97 0.90 100 1010.4
20210126154217 55 180 1.0 2.0 0.00 0.97 0.90 100 1010.4
20210126153714 55 135 2.0 6.0 0.00 0.97 0.90 100 1010.4
20210126153212 55 135 2.0 6.0 0.00 0.97 0.90 100 1010.0
20210126152707 54 112 1.0 4.0 0.00 0.97 0.90 100 1010.0
20210126152151 54 112 1.0 4.0 0.00 0.97 0.90 100 1010.0
20210126151649 54 112 0.0 3.0 0.00 0.97 0.90 100 1009.7
20210126151131 54 112 1.0 4.0 0.00 0.97 0.90 100 1009.7
20210126150614 54 135 0.0 4.0 0.00 0.97 0.90 100 1009.7
20210126150103 54 180 0.0 1.0 0.00 0.98 0.90 100 1009.3
20210126145551 54 180 0.0 1.0 0.00 0.99 0.90 100 1008.9
20210126145043 54 112 0.0 1.0 0.00 1.00 0.90 100 1008.9
20210126144541 53 112 0.0 1.0 0.00 1.00 0.90 100 1008.9
20210126144041 53 112 0.0 0.0 0.00 1.01 0.90 100 1008.9
20210126143539 53 135 0.0 0.0 0.00 1.01 0.90 100 1008.9
20210126143033 53 112 0.0 0.0 0.00 1.01 0.90 100 1008.9
20210126142534 53 112 0.0 0.0 0.00 1.01 0.90 100 1008.6
20210126142031 53 112 0.0 0.0 0.00 1.01 0.90 100 1008.6
20210126141530 53 112 0.0 0.0 0.00 1.01 0.90 100 1008.3
20210126141030 53 112 0.0 0.0 0.00 1.01 0.90 100 1008.3
20210126140526 53 135 0.0 1.0 0.00 1.02 0.90 100 1008.6
20210126140033 53 112 0.0 1.0 0.00 1.02 0.90 100 1008.6
20210126135519 53 135 0.0 0.0 0.00 1.02 0.90 100 1008.6
20210126135023 52 112 0.0 0.0 0.00 1.02 0.90 100 1008.6
20210126134518 52 112 0.0 0.0 0.00 1.03 0.90 100 1008.6
20210126134015 52 112 0.0 0.0 0.00 1.03 0.90 100 1008.6
20210126133521 52 112 0.0 0.0 0.00 1.03 0.90 100 1008.6
20210126132949 52 112 0.0 0.0 0.00 1.03 0.90 100 1008.6
20210126132446 52 112 0.0 0.0 0.00 1.03 0.90 100 1008.9
20210126131939 52 112 0.0 0.0 0.00 1.03 0.90 100 1008.9
20210126131435 52 135 0.0 0.0 0.00 1.03 0.90 100 1008.6
20210126130918 52 112 0.0 0.0 0.00 1.03 0.90 100 1008.6
20210126130418 52 135 0.0 0.0 0.00 1.03 0.90 100 1008.6
20210126125919 52 112 0.0 0.0 0.00 1.03 0.90 100 1008.3
20210126125417 52 112 0.0 0.0 0.00 1.03 0.90 100 1008.3
20210126124913 52 112 0.0 0.0 0.00 1.04 0.90 100 1007.8
20210126124424 52 135 0.0 0.0 0.00 1.04 0.90 100 1008.3
20210126123914 52 112 0.0 1.0 0.01 1.04 0.90 100 1008.3
20210126123400 52 112 0.0 1.0 0.01 1.05 0.90 100 1008.3
20210126122857 52 112 0.0 0.0 0.01 1.05 0.90 100 1008.6
20210126122402 52 112 0.0 0.0 0.01 1.05 0.90 100 1008.3
20210126121850 52 112 0.0 1.0 0.01 1.06 0.90 100 1007.8
20210126121340 52 112 0.0 1.0 0.01 1.08 0.90 100 1008.3
20210126120847 52 112 0.0 1.0 0.01 1.08 0.90 100 1008.6
20210126120318 52 112 0.0 0.0 0.01 1.09 0.90 100 1008.6
20210126115749 52 112 0.0 1.0 0.01 1.10 0.90 100 1007.8
20210126115249 52 112 0.0 1.0 0.01 1.11 0.90 100 1007.5
20210126114741 52 135 0.0 1.0 0.01 1.12 0.90 100 1008.3
20210126114238 53 112 1.0 2.0 0.01 1.12 0.90 100 1008.3
20210126113727 52 112 0.0 2.0 0.00 1.11 0.89 100 1008.3
20210126113223 52 112 0.0 1.0 0.00 1.12 0.89 100 1008.3
20210126112714 52 112 0.0 1.0 0.00 1.12 0.89 100 1008.3
20210126112245 53 112 0.0 1.0 0.00 1.13 0.89 100 1007.8
20210126111709 53 112 0.0 0.0 0.00 1.14 0.89 100 1007.8
20210126111212 53 112 0.0 0.0 0.00 1.15 0.89 100 1007.8
20210126110715 53 135 0.0 2.0 0.00 1.15 0.89 100 1007.8
20210126110207 54 112 0.0 2.0 0.00 1.15 0.89 100 1007.8
20210126105712 54 112 0.0 1.0 0.00 1.16 0.89 100 1007.8
20210126105205 54 135 0.0 2.0 0.01 1.17 0.89 100 1007.8
20210126104711 54 112 0.0 2.0 0.01 1.17 0.89 100 1007.8
20210126104208 54 112 0.0 0.0 0.01 1.18 0.89 100 1007.8
20210126103642 54 112 0.0 0.0 0.04 1.18 0.89 100 1007.8
20210126103128 54 112 0.0 2.0 0.04 1.19 0.89 100 1007.1
20210126102622 54 112 0.0 2.0 0.05 1.19 0.89 100 1007.5
20210126102121 54 112 0.0 0.0 0.05 1.19 0.89 100 1007.8
20210126101556 54 112 0.0 0.0 0.07 1.19 0.89 100 1007.5
20210126101054 54 112 0.0 1.0 0.08 1.19 0.89 100 1007.5
20210126100555 54 112 0.0 1.0 0.09 1.19 0.89 100 1007.5
20210126100137 54 112 0.0 0.0 0.10 1.19 0.89 100 1007.5
20210126095529 54 112 0.0 0.0 0.11 1.19 0.89 100 1007.8
20210126095021 54 112 0.0 0.0 0.10 1.18 0.88 100 1007.8
20210126094524 54 112 0.0 0.0 0.12 1.18 0.88 99 1007.8
20210126094017 54 112 0.0 0.0 0.12 1.17 0.87 99 1007.5
20210126093518 54 112 0.0 0.0 0.12 1.15 0.85 99 1007.8
20210126092954 54 112 0.0 0.0 0.17 1.15 0.85 99 1007.5
20210126092438 54 112 0.0 2.0 0.21 1.14 0.84 99 1007.5
20210126091915 54 112 1.0 3.0 0.32 1.13 0.83 99 1007.1
20210126091410 54 135 2.0 3.0 0.44 1.12 0.82 99 1007.1
20210126090905 54 112 1.0 2.0 0.52 1.11 0.81 99 1007.5
20210126090350 54 112 0.0 2.0 0.52 1.10 0.80 99 1007.1
20210126085846 54 112 0.0 2.0 0.52 1.09 0.79 99 1007.1
20210126085338 54 112 0.0 2.0 0.55 1.08 0.78 99 1006.8
20210126084837 54 135 0.0 2.0 0.54 1.07 0.77 99 1007.1
20210126084340 54 315 0.0 2.0 0.53 1.06 0.76 99 1007.1
20210126083836 54 315 0.0 3.0 0.52 1.04 0.75 99 1006.8
20210126083439 54 112 0.0 2.0 0.46 0.98 0.68 99 1007.1
20210126083338 54 112 1.0 3.0 0.49 1.01 0.71 99 1007.1
20210126080315 54 112 0.0 1.0 0.11 0.58 0.28 99 1006.4
20210126075842 53 112 1.0 3.0 0.06 0.53 0.23 99 1006.0
20210126075814 54 112 1.0 3.0 0.09 0.56 0.27 99 1006.0
20210126074807 54 112 0.0 3.0 0.06 0.53 0.23 99 1006.0
20210126074303 54 112 0.0 1.0 0.07 0.53 0.23 99 1006.0
20210126073753 54 112 0.0 2.0 0.06 0.52 0.22 99 1006.0
20210126073247 54 112 1.0 3.0 0.06 0.52 0.22 99 1006.0
20210126072740 54 315 1.0 4.0 0.06 0.52 0.22 99 1006.0
20210126072238 54 112 1.0 4.0 0.05 0.51 0.21 99 1006.4
20210126071734 54 112 1.0 4.0 0.04 0.50 0.20 98 1006.4
20210126071238 53 112 1.0 4.0 0.03 0.49 0.19 98 1006.0
20210126070723 53 90 1.0 4.0 0.02 0.48 0.18 98 1006.4
20210126070210 53 337 0.0 4.0 0.02 0.47 0.17 98 1006.8
20210126065706 53 67 0.0 1.0 0.02 0.47 0.17 98 1006.4
20210126065141 53 112 0.0 3.0 0.08 0.47 0.17 98 1006.4
20210126064644 53 112 1.0 3.0 0.12 0.47 0.17 98 1006.4
20210126064144 53 112 0.0 3.0 0.12 0.46 0.16 98 1006.4
20210126063645 54 112 0.0 3.0 0.12 0.46 0.16 98 1006.4
20210126063133 54 112 0.0 3.0 0.12 0.46 0.16 97 1006.8
20210126062631 54 135 1.0 3.0 0.12 0.46 0.16 97 1006.8
20210126062120 54 112 0.0 3.0 0.13 0.46 0.16 97 1006.8
20210126061610 54 292 1.0 2.0 0.15 0.46 0.16 97 1006.4
20210126061049 54 292 1.0 2.0 0.16 0.46 0.16 97 1006.4
20210126060557 55 112 1.0 3.0 0.16 0.46 0.16 96 1006.4
20210126060056 54 247 1.0 5.0 0.15 0.45 0.15 96 1007.1
20210126055541 55 135 1.0 5.0 0.15 0.44 0.15 95 1007.1
20210126055342 55 292 0.0 2.0 0.08 0.37 0.09 95 1007.8
20210126054030 57 247 1.0 3.0 0.05 0.34 0.04 95 1006.8
20210126053515 57 112 0.0 3.0 0.05 0.34 0.04 95 1006.8
20210126053021 58 157 1.0 6.0 0.05 0.34 0.04 95 1007.1
20210126052512 58 135 1.0 6.0 0.05 0.34 0.04 95 1006.4
20210126051953 58 315 1.0 7.0 0.03 0.32 0.03 95 1006.8
20210126051458 57 292 3.0 7.0 0.02 0.30 0.00 96 1007.1
20210126050947 56 292 2.0 7.0 0.02 0.30 0.00 96 1007.1
20210126050456 56 112 1.0 5.0 0.02 0.30 0.00 95 1006.8
20210126045939 56 112 1.0 4.0 0.02 0.30 0.30 95 1007.1
20210126045433 57 112 1.0 4.0 0.01 0.29 0.29 95 1007.8
20210126044937 57 292 1.0 4.0 0.01 0.29 0.29 96 1007.5
20210126044432 57 112 1.0 4.0 0.01 0.29 0.29 96 1007.1
20210126043932 57 337 0.0 3.0 0.01 0.29 0.29 96 1007.1
20210126043433 57 180 1.0 7.0 0.04 0.29 0.29 96 1007.5
20210126042934 56 292 1.0 7.0 0.05 0.29 0.29 96 1007.5
20210126042432 56 112 1.0 6.0 0.05 0.29 0.29 96 1007.5
20210126041933 55 135 1.0 6.0 0.05 0.29 0.29 96 1007.1
20210126041434 54 292 0.0 3.0 0.04 0.28 0.28 96 1007.8
20210126040932 53 315 0.0 3.0 0.04 0.28 0.28 95 1007.8
20210126040420 53 315 0.0 3.0 0.04 0.28 0.28 95 1007.8
20210126035921 53 90 0.0 3.0 0.04 0.28 0.28 95 1007.5
20210126035417 53 112 1.0 2.0 0.04 0.28 0.28 95 1007.8
20210126034854 54 292 0.0 2.0 0.04 0.28 0.28 94 1007.8
20210126034342 54 292 0.0 3.0 0.04 0.28 0.28 94 1008.3
20210126033839 54 112 0.0 3.0 0.04 0.28 0.28 93 1007.8
20210126033426 54 112 1.0 5.0 0.00 0.24 0.24 93 1008.6
20210126032820 54 112 1.0 5.0 0.00 0.24 0.24 92 1008.3
20210126032316 54 112 0.0 3.0 0.00 0.24 0.24 91 1007.8
20210126031823 54 292 0.0 2.0 0.00 0.24 0.24 91 1007.5
20210126031311 55 292 0.0 2.0 0.00 0.24 0.24 90 1007.8